Weather History for KCEF - October, 2012

Change the Weather History Date:

Friday, October 26, 2012

  Actual Average (KBDL) Record (KBDL)
Temperature  
Mean Temperature 56 °F 49 °F  
Max Temperature 63 °F 59 °F 81 °F (1963)
Min Temperature 48 °F 38 °F 23 °F (1952)
Degree Days  
Heating Degree Days 10 16  
Month to date heating degree days 321  
Since 1 July heating degree days 443  
Cooling Degree Days 0 0  
Month to date cooling degree days 5  
Year to date cooling degree days 754  
Growing Degree Days 6 (Base 50)    
Moisture  
Dew Point 51 °F    
Average Humidity 85    
Maximum Humidity 100    
Minimum Humidity 72    
Precipitation  
Precipitation 0.00 in 0.13 in 3.03 in (1913)
Month to date precipitation 3.74  
Year to date precipitation 37.89  
Snow  
Snow 0.00 in 0.00 in T in (1962)
Month to date snowfall 0.0  
Since 1 July snowfall 0.0  
Since 1 September snowfall 0.0  
Snow Depth -    
Sea Level Pressure  
Sea Level Pressure 30.18 in    
Wind  
Wind Speed 3 mph (SSW)    
Max Wind Speed 12 mph    
Max Gust Speed -    
Visibility 9 miles    
Events Fog    
T = Trace of Precipitation, MM = Missing Value Source: NWS Daily Summary

Daily Weather History Graph

Daily Weather History Graph

Search for Another Location

Airport or City:

Trip Planner

Search our weather history database for the weather conditions in past years. The results will help you decide how hot, cold, wet, or windy it might be!

Date:

Astronomy

Oct. 26, 2012 Rise Set
Actual Time 7:16 AM EDT 5:51 PM EDT
Civil Twilight 6:47 AM EDT 6:19 PM EDT
Nautical Twilight 6:14 AM EDT 6:52 PM EDT
Astronomical Twilight 5:42 AM EDT 7:25 PM EDT
Moon 4:07 PM EDT (10/26) 4:06 AM EDT (10/26)
Length of Visible Light 11h 32m
Length of Day
10h 34m
Waxing Gibbous, 91% of the Moon is Illuminated
Oct 26
Waxing Gibbous
Oct 29
Full
Nov 6
Last Quarter
Nov 13
New
Nov 20
First Quarter

Hourly Weather History & Observations

Time (EDT) Temp. Dew Point Humidity Pressure Visibility Wind Dir Wind Speed Gust Speed Precip Events Conditions
12:55 AM 53.8 °F 46.4 °F 76% 30.25 in 10.0 mi SSE 3.5 mph - N/A   Overcast
1:55 AM 53.6 °F 46.9 °F 78% 30.25 in 10.0 mi SSE 3.5 mph - N/A   Overcast
2:55 AM 53.6 °F 47.5 °F 80% 30.24 in 10.0 mi Calm Calm - N/A   Overcast
3:55 AM 53.2 °F 48.2 °F 83% 30.24 in 10.0 mi Calm Calm - N/A   Overcast
4:55 AM 52.3 °F 49.3 °F 89% 30.24 in 10.0 mi Calm Calm - N/A   Overcast
5:55 AM 52.2 °F 48.9 °F 89% 30.23 in 10.0 mi Calm Calm - N/A   Overcast
6:55 AM 52.5 °F 49.3 °F 89% 30.22 in 10.0 mi Calm Calm - N/A   Overcast
7:23 AM 51.8 °F 50.0 °F 94% 30.22 in 10.0 mi Calm Calm - N/A   Overcast
7:55 AM 53.2 °F 49.6 °F 88% 30.23 in 10.0 mi Calm Calm - N/A   Overcast
8:55 AM 55.2 °F 49.8 °F 82% 30.24 in 10.0 mi Calm Calm - N/A   Overcast
9:55 AM 59.0 °F 51.6 °F 76% 30.23 in 10.0 mi SSW 8.1 mph - N/A   Overcast
10:55 AM 60.4 °F 52.3 °F 75% 30.23 in 10.0 mi SSW 6.9 mph - N/A   Overcast
11:55 AM 61.3 °F 52.9 °F 74% 30.22 in 10.0 mi SSW 6.9 mph - N/A   Overcast
12:55 PM 61.7 °F 53.4 °F 74% 30.21 in 10.0 mi South 11.5 mph - N/A   Overcast
1:55 PM 62.4 °F 54.0 °F 74% 30.18 in 10.0 mi South 8.1 mph - N/A   Overcast
2:48 PM 62.6 °F 53.6 °F 72% 30.17 in 10.0 mi South 10.4 mph - N/A   Overcast
2:55 PM 63.3 °F 54.1 °F 72% 30.17 in 10.0 mi SSW 5.8 mph - N/A   Overcast
3:55 PM 63.7 °F 54.5 °F 72% 30.15 in 10.0 mi WSW 9.2 mph - N/A   Overcast
4:55 PM 63.3 °F 54.3 °F 72% 30.14 in 10.0 mi WSW 6.9 mph - N/A   Overcast
5:46 PM 60.8 °F 53.6 °F 77% 30.13 in 10.0 mi SW 4.6 mph - N/A   Scattered Clouds
5:55 PM 59.5 °F 53.4 °F 80% 30.14 in 10.0 mi WSW 3.5 mph - N/A   Scattered Clouds
5:58 PM 59.0 °F 53.6 °F 82% 30.14 in 10.0 mi SW 3.5 mph - N/A   Mostly Cloudy
6:55 PM 59.9 °F 53.8 °F 80% 30.14 in 10.0 mi West 3.5 mph - N/A   Overcast
7:23 PM 59.0 °F 53.6 °F 82% 30.14 in 10.0 mi SW 3.5 mph - N/A   Scattered Clouds
7:55 PM 55.9 °F 52.2 °F 87% 30.14 in 10.0 mi SSW 3.5 mph - N/A   Clear
8:55 PM 51.4 °F 50.5 °F 97% 30.14 in 10.0 mi Calm Calm - N/A   Clear
9:30 PM 48.2 °F 48.2 °F 100% 30.15 in 2.0 mi Calm Calm - N/A   Clear
9:31 PM 48.2 °F 48.2 °F 100% 30.15 in 1.2 mi Calm Calm - N/A   Clear
9:32 PM 48.2 °F 48.2 °F 100% 30.15 in 4.0 mi Calm Calm - N/A Fog Shallow Fog
9:33 PM 48.2 °F 48.2 °F 100% 30.15 in 0.8 mi Calm Calm - N/A   Clear
9:34 PM 48.2 °F 48.2 °F 100% 30.15 in 3.0 mi Calm Calm - N/A Fog Shallow Fog
9:57 PM 49.5 °F 48.9 °F 98% 30.17 in 3.0 mi Calm Calm - N/A   Partly Cloudy
10:55 PM 49.6 °F 49.1 °F 98% 30.15 in 9.0 mi NNE 3.5 mph - N/A   Overcast
11:55 PM 51.3 °F 50.7 °F 98% 30.14 in 10.0 mi Calm Calm - N/A   Overcast